BAW33A EGKK-LSGG

Flight info

Callsign BAW33A
Flight time N/A
Altitude 27000
Route BOGNA L612 XAMAB UL612 VEULE DCT PEKIM DCT PILUL DCT PIMUP DCT PIXIS DCT PIBAT DCT LUSAR
Aircraft A319/M-SDE3FGHIRWY/LB1

Departure

Time 2026-04-14 15:55
Airport London Gatwick Airport (EGKK)

Arrival

Time N/A
Airport Geneva International Airport (LSGG)
Time Latitude Longitude Altitude Speed Heading
2026-04-14 15:22 51.15507 -0.16779 209 ft 0 kts 348°
2026-04-14 15:44 51.15506 -0.16778 204 ft 1 kts 348°
2026-04-14 15:45 51.15491 -0.16773 208 ft 3 kts 348°
2026-04-14 15:45 51.15472 -0.16767 207 ft 2 kts 348°
2026-04-14 15:45 51.15460 -0.16762 213 ft 3 kts 47°
2026-04-14 15:45 51.15454 -0.16782 212 ft 1 kts 78°
2026-04-14 15:46 51.15452 -0.16801 216 ft 3 kts 78°
2026-04-14 15:46 51.15450 -0.16815 212 ft 0 kts 78°
2026-04-14 15:49 51.15452 -0.16797 216 ft 4 kts 81°
2026-04-14 15:49 51.15436 -0.16732 207 ft 9 kts 141°
2026-04-14 15:50 51.15365 -0.16700 204 ft 10 kts 166°
2026-04-14 15:50 51.15332 -0.16683 207 ft 0 kts 161°
2026-04-14 15:51 51.15327 -0.16681 204 ft 3 kts 163°
2026-04-14 15:51 51.15288 -0.16666 207 ft 7 kts 167°
2026-04-14 15:51 51.15270 -0.16659 206 ft 0 kts 167°
2026-04-14 15:52 51.15266 -0.16658 207 ft 2 kts 168°
2026-04-14 15:52 51.15244 -0.16650 210 ft 5 kts 168°
2026-04-14 15:53 51.15242 -0.16649 209 ft 0 kts 167°
2026-04-14 15:53 51.15224 -0.16643 210 ft 6 kts 168°
2026-04-14 15:54 51.15131 -0.16738 202 ft 0 kts 257°
2026-04-14 15:54 51.15118 -0.16830 202 ft 31 kts 257°
2026-04-14 15:55 51.15026 -0.17487 211 ft 90 kts 257°
2026-04-14 15:55 51.14850 -0.18758 208 ft 143 kts 257°
2026-04-14 15:55 51.14631 -0.20412 651 ft 150 kts 256°
2026-04-14 15:55 51.14443 -0.21973 1445 ft 142 kts 250°
2026-04-14 15:56 51.14211 -0.23597 1840 ft 160 kts 248°
2026-04-14 15:56 51.13936 -0.25449 2207 ft 183 kts 250°
2026-04-14 15:56 51.13629 -0.27524 2575 ft 207 kts 251°
2026-04-14 15:56 51.13302 -0.29817 3374 ft 215 kts 253°
2026-04-14 15:57 51.12979 -0.32156 4362 ft 218 kts 253°
2026-04-14 15:57 51.12655 -0.34524 5341 ft 220 kts 253°
2026-04-14 15:57 51.12326 -0.36918 6300 ft 223 kts 254°
2026-04-14 15:57 51.11974 -0.39329 7198 ft 225 kts 249°
2026-04-14 15:58 51.11092 -0.41337 7995 ft 226 kts 214°
2026-04-14 15:58 51.09596 -0.42089 8838 ft 233 kts 181°
2026-04-14 15:58 51.07966 -0.41913 9766 ft 237 kts 177°
2026-04-14 15:58 51.06267 -0.41678 10314 ft 256 kts 177°
2026-04-14 15:59 51.04422 -0.41425 10774 ft 274 kts 177°
2026-04-14 15:59 51.02490 -0.41164 11478 ft 282 kts 178°
2026-04-14 15:59 51.00515 -0.40906 12228 ft 288 kts 179°
2026-04-14 15:59 50.98492 -0.40651 12956 ft 295 kts 179°
2026-04-14 16:00 50.96422 -0.40391 13682 ft 301 kts 179°
2026-04-14 16:00 50.94310 -0.40123 14359 ft 307 kts 179°
2026-04-14 16:00 50.92162 -0.39849 15036 ft 312 kts 179°
2026-04-14 16:00 50.89984 -0.39570 15723 ft 316 kts 179°
2026-04-14 16:01 50.87775 -0.39285 16409 ft 321 kts 179°
2026-04-14 16:01 50.85526 -0.38989 17050 ft 327 kts 176°
2026-04-14 16:01 50.83279 -0.38184 17687 ft 337 kts 163°
2026-04-14 16:01 50.81185 -0.36565 18306 ft 345 kts 149°
2026-04-14 16:02 50.79170 -0.34461 18895 ft 349 kts 148°
2026-04-14 16:02 50.77129 -0.32333 19471 ft 353 kts 148°
2026-04-14 16:02 50.75061 -0.30189 20034 ft 357 kts 149°
2026-04-14 16:02 50.72971 -0.28031 20597 ft 361 kts 149°
2026-04-14 16:03 50.70857 -0.25852 21152 ft 365 kts 149°
2026-04-14 16:03 50.68709 -0.23633 21497 ft 376 kts 148°
2026-04-14 16:03 50.66483 -0.21311 21630 ft 392 kts 148°
2026-04-14 16:03 50.64164 -0.18876 21750 ft 408 kts 148°
2026-04-14 16:04 50.61770 -0.16356 22021 ft 418 kts 148°
2026-04-14 16:04 50.59332 -0.13791 22487 ft 423 kts 148°
2026-04-14 16:04 50.56868 -0.11202 22996 ft 427 kts 148°
2026-04-14 16:04 50.54382 -0.08599 23491 ft 431 kts 148°
2026-04-14 16:05 50.51874 -0.05978 23934 ft 435 kts 148°
2026-04-14 16:05 50.49373 -0.03373 24330 ft 438 kts 148°
2026-04-14 16:05 50.46819 -0.00726 24730 ft 442 kts 148°
2026-04-14 16:05 50.44243 0.01937 25124 ft 445 kts 148°
2026-04-14 16:06 50.41640 0.04627 25496 ft 449 kts 148°
2026-04-14 16:06 50.39023 0.07330 25883 ft 452 kts 148°
2026-04-14 16:06 50.36385 0.10059 26263 ft 456 kts 148°
2026-04-14 16:06 50.33730 0.12805 26634 ft 459 kts 148°
2026-04-14 16:07 50.31056 0.15568 26993 ft 462 kts 148°
2026-04-14 16:07 50.28362 0.18342 27117 ft 460 kts 148°
2026-04-14 16:07 50.25723 0.21058 27149 ft 449 kts 148°
2026-04-14 16:07 50.23123 0.23729 27149 ft 446 kts 148°
2026-04-14 16:08 50.20560 0.26354 27149 ft 445 kts 148°
2026-04-14 16:08 50.17974 0.29004 27144 ft 444 kts 148°
2026-04-14 16:08 50.15390 0.31661 27150 ft 444 kts 147°
2026-04-14 16:08 50.12815 0.34314 27149 ft 444 kts 147°
2026-04-14 16:09 50.10240 0.36968 27152 ft 444 kts 147°
2026-04-14 16:09 50.07666 0.39610 27152 ft 443 kts 148°
2026-04-14 16:09 50.05083 0.42248 27151 ft 443 kts 148°
2026-04-14 16:09 50.02504 0.44880 27148 ft 443 kts 148°
2026-04-14 16:10 49.99961 0.47475 27153 ft 443 kts 147°
2026-04-14 16:10 49.97381 0.50103 27146 ft 443 kts 147°
2026-04-14 16:10 49.94802 0.52729 27129 ft 443 kts 147°
2026-04-14 16:10 49.92225 0.55354 27132 ft 443 kts 147°
2026-04-14 16:11 49.89643 0.57975 27131 ft 443 kts 147°
2026-04-14 16:11 49.87060 0.60591 27131 ft 444 kts 147°
2026-04-14 16:11 49.84619 0.63510 27132 ft 444 kts 137°
2026-04-14 16:11 49.82362 0.66796 27132 ft 444 kts 136°
2026-04-14 16:12 49.80116 0.70079 27132 ft 444 kts 136°
2026-04-14 16:12 49.77870 0.73354 27134 ft 444 kts 136°
2026-04-14 16:12 49.75611 0.76635 27135 ft 444 kts 136°
2026-04-14 16:12 49.73392 0.79853 27128 ft 444 kts 136°
2026-04-14 16:13 49.71105 0.83168 27133 ft 444 kts 136°
2026-04-14 16:13 49.68880 0.86388 27133 ft 444 kts 136°
2026-04-14 16:13 49.66623 0.89645 27137 ft 444 kts 136°
2026-04-14 16:13 49.64359 0.92909 27150 ft 444 kts 136°
2026-04-14 16:14 49.62101 0.96165 27147 ft 445 kts 136°
2026-04-14 16:14 49.59837 0.99429 27147 ft 445 kts 136°
2026-04-14 16:14 49.57574 1.02685 27146 ft 445 kts 136°
2026-04-14 16:14 49.55302 1.05944 27145 ft 445 kts 136°
2026-04-14 16:15 49.53035 1.09190 27145 ft 446 kts 136°
2026-04-14 16:15 49.50760 1.12444 27134 ft 446 kts 136°
2026-04-14 16:15 49.48486 1.15692 27136 ft 446 kts 136°
2026-04-14 16:15 49.46215 1.18933 27137 ft 446 kts 136°
2026-04-14 16:16 49.43970 1.22136 27140 ft 446 kts 136°
2026-04-14 16:16 49.41696 1.25381 27142 ft 446 kts 136°
2026-04-14 16:16 49.39419 1.28621 27144 ft 446 kts 136°
2026-04-14 16:16 49.37138 1.31855 27145 ft 446 kts 136°
2026-04-14 16:17 49.34859 1.35079 27165 ft 446 kts 135°
2026-04-14 16:17 49.32574 1.38312 27162 ft 446 kts 135°
2026-04-14 16:17 49.30293 1.41542 27160 ft 446 kts 135°
2026-04-14 16:17 49.28014 1.44761 27159 ft 446 kts 135°
2026-04-14 16:18 49.25730 1.47983 27161 ft 446 kts 135°
2026-04-14 16:18 49.23451 1.51192 27166 ft 446 kts 135°
2026-04-14 16:18 49.21166 1.54405 27173 ft 446 kts 135°
2026-04-14 16:18 49.18881 1.57616 27174 ft 446 kts 135°
2026-04-14 16:19 49.16626 1.60786 27174 ft 446 kts 135°
2026-04-14 16:19 49.14340 1.63993 27174 ft 446 kts 135°
2026-04-14 16:19 49.12050 1.67199 27174 ft 446 kts 135°
2026-04-14 16:19 49.09763 1.70394 27173 ft 446 kts 135°
2026-04-14 16:20 49.07470 1.73589 27174 ft 446 kts 135°
2026-04-14 16:20 49.05177 1.76783 27200 ft 446 kts 135°
2026-04-14 16:20 49.02886 1.79972 27197 ft 446 kts 135°
2026-04-14 16:20 49.00596 1.83157 27193 ft 446 kts 135°
2026-04-14 16:21 48.98306 1.86336 27194 ft 446 kts 135°
2026-04-14 16:21 48.96011 1.89520 27193 ft 446 kts 135°
2026-04-14 16:21 48.93722 1.92694 27189 ft 446 kts 135°
2026-04-14 16:21 48.91424 1.95872 27186 ft 446 kts 135°
2026-04-14 16:22 48.89128 1.99038 27182 ft 445 kts 135°
2026-04-14 16:22 48.86868 2.02156 27181 ft 445 kts 135°
2026-04-14 16:22 48.84574 2.05319 27181 ft 445 kts 135°
2026-04-14 16:22 48.82273 2.08487 27182 ft 446 kts 135°
2026-04-14 16:23 48.79973 2.11647 27181 ft 446 kts 136°
2026-04-14 16:23 48.77674 2.14797 27182 ft 446 kts 136°
2026-04-14 16:23 48.75371 2.17948 27201 ft 446 kts 136°
2026-04-14 16:23 48.73069 2.21095 27194 ft 446 kts 136°
2026-04-14 16:24 48.70770 2.24239 27187 ft 446 kts 136°
2026-04-14 16:24 48.68466 2.27387 27187 ft 446 kts 136°
2026-04-14 16:24 48.66161 2.30529 27183 ft 446 kts 136°
2026-04-14 16:24 48.63855 2.33668 27182 ft 446 kts 136°
2026-04-14 16:25 48.61550 2.36805 27178 ft 446 kts 136°
2026-04-14 16:25 48.59242 2.39945 27178 ft 446 kts 136°
2026-04-14 16:25 48.56935 2.43076 27179 ft 446 kts 136°
2026-04-14 16:25 48.54624 2.46205 27179 ft 446 kts 136°
2026-04-14 16:26 48.52348 2.49287 27178 ft 446 kts 136°
2026-04-14 16:26 48.50037 2.52412 27179 ft 446 kts 136°
2026-04-14 16:26 48.47724 2.55534 27179 ft 446 kts 136°
2026-04-14 16:26 48.45412 2.58650 27181 ft 446 kts 136°
2026-04-14 16:27 48.43094 2.61765 27198 ft 446 kts 136°
2026-04-14 16:27 48.40783 2.64870 27196 ft 446 kts 136°
2026-04-14 16:27 48.38467 2.67985 27186 ft 446 kts 135°
2026-04-14 16:27 48.36153 2.71096 27182 ft 446 kts 135°
2026-04-14 16:28 48.33838 2.74200 27177 ft 446 kts 135°
2026-04-14 16:28 48.31518 2.77306 27179 ft 446 kts 136°
2026-04-14 16:28 48.29205 2.80396 27185 ft 446 kts 135°
2026-04-14 16:28 48.26876 2.83474 27186 ft 446 kts 137°
2026-04-14 16:29 48.24472 2.86445 27180 ft 447 kts 139°
2026-04-14 16:29 48.22015 2.89299 27185 ft 447 kts 141°
2026-04-14 16:29 48.19555 2.92063 27187 ft 447 kts 141°
2026-04-14 16:29 48.17057 2.94843 27185 ft 447 kts 141°
2026-04-14 16:30 48.14558 2.97634 27179 ft 447 kts 141°
2026-04-14 16:30 48.12071 3.00446 27199 ft 447 kts 140°
2026-04-14 16:30 48.09589 3.03244 27198 ft 448 kts 143°
2026-04-14 16:30 48.06900 3.05643 27194 ft 450 kts 152°
2026-04-14 16:31 48.04033 3.07542 27191 ft 451 kts 155°
2026-04-14 16:31 48.01147 3.09376 27189 ft 451 kts 156°
2026-04-14 16:31 47.98255 3.11196 27191 ft 451 kts 156°
2026-04-14 16:31 47.95364 3.13002 27183 ft 451 kts 156°
2026-04-14 16:32 47.93449 3.14195 27179 ft 451 kts 156°
2026-04-14 16:32 47.90554 3.16001 27182 ft 451 kts 156°
2026-04-14 16:32 47.87661 3.17810 27183 ft 451 kts 156°
2026-04-14 16:32 47.84771 3.19618 27181 ft 451 kts 156°
2026-04-14 16:33 47.81878 3.21427 27182 ft 451 kts 156°
2026-04-14 16:33 47.78989 3.23232 27178 ft 451 kts 156°
2026-04-14 16:33 47.76095 3.25037 27179 ft 451 kts 156°
2026-04-14 16:33 47.73197 3.26846 27174 ft 451 kts 155°
2026-04-14 16:34 47.70342 3.28630 27175 ft 451 kts 155°
2026-04-14 16:34 47.67451 3.30434 27176 ft 451 kts 155°
2026-04-14 16:34 47.64558 3.32236 27175 ft 451 kts 156°
2026-04-14 16:34 47.61661 3.34037 27176 ft 451 kts 156°
2026-04-14 16:35 47.58766 3.35831 27201 ft 451 kts 155°
2026-04-14 16:35 47.55867 3.37620 27191 ft 451 kts 155°
2026-04-14 16:35 47.52966 3.39402 27186 ft 451 kts 155°
2026-04-14 16:35 47.50067 3.41180 27181 ft 451 kts 155°
2026-04-14 16:36 47.47167 3.42964 27178 ft 451 kts 155°
2026-04-14 16:36 47.44264 3.44758 27174 ft 451 kts 155°
2026-04-14 16:36 47.41362 3.46549 27175 ft 452 kts 155°
2026-04-14 16:36 47.38464 3.48335 27175 ft 452 kts 155°
2026-04-14 16:37 47.35602 3.50094 27172 ft 452 kts 155°
2026-04-14 16:37 47.32674 3.51887 27183 ft 462 kts 155°
2026-04-14 16:37 47.29664 3.53728 27190 ft 474 kts 155°
2026-04-14 16:37 47.26577 3.55620 27191 ft 487 kts 155°
2026-04-14 16:38 47.23415 3.57560 27185 ft 498 kts 155°
2026-04-14 16:38 47.20178 3.59543 27191 ft 509 kts 155°
2026-04-14 16:38 47.16880 3.61556 27190 ft 518 kts 155°
2026-04-14 16:38 47.13525 3.63595 27179 ft 526 kts 155°
2026-04-14 16:39 47.10123 3.65663 27181 ft 531 kts 155°
2026-04-14 16:39 47.06699 3.67741 27185 ft 533 kts 155°
2026-04-14 16:39 47.03268 3.69817 27181 ft 533 kts 155°
2026-04-14 16:39 46.99867 3.71978 27180 ft 532 kts 150°
2026-04-14 16:40 46.96783 3.74890 27186 ft 526 kts 137°
2026-04-14 16:40 46.94185 3.78601 27180 ft 518 kts 125°
2026-04-14 16:40 46.92188 3.82907 27181 ft 509 kts 112°
2026-04-14 16:40 46.90793 3.87614 27164 ft 502 kts 105°
2026-04-14 16:41 46.89548 3.92389 27157 ft 502 kts 105°
2026-04-14 16:41 46.88295 3.97141 27166 ft 501 kts 105°
2026-04-14 16:41 46.87030 4.01897 27166 ft 501 kts 105°
2026-04-14 16:41 46.85759 4.06646 27175 ft 501 kts 105°
2026-04-14 16:42 46.84489 4.11387 27189 ft 501 kts 105°
2026-04-14 16:42 46.83239 4.16054 27188 ft 500 kts 105°
2026-04-14 16:42 46.81969 4.20776 27182 ft 499 kts 105°
2026-04-14 16:42 46.80738 4.25519 27180 ft 495 kts 101°
2026-04-14 16:43 46.79941 4.30353 27181 ft 489 kts 95°
2026-04-14 16:43 46.79244 4.35212 27172 ft 489 kts 95°
2026-04-14 16:43 46.78544 4.40064 27168 ft 489 kts 96°
2026-04-14 16:43 46.77837 4.44925 27167 ft 489 kts 96°
2026-04-14 16:44 46.77128 4.49779 27184 ft 489 kts 96°
2026-04-14 16:44 46.76413 4.54629 27182 ft 489 kts 96°
2026-04-14 16:44 46.75695 4.59469 27179 ft 488 kts 96°
2026-04-14 16:45 46.74251 4.69164 27171 ft 488 kts 96°
2026-04-14 16:45 46.73531 4.73989 27168 ft 488 kts 96°
2026-04-14 16:45 46.72810 4.78817 27165 ft 488 kts 96°
2026-04-14 16:45 46.72096 4.83583 27164 ft 488 kts 96°
2026-04-14 16:46 46.71372 4.88410 27190 ft 488 kts 97°
2026-04-14 16:46 46.70647 4.93234 27187 ft 487 kts 97°
2026-04-14 16:46 46.69923 4.98060 27139 ft 487 kts 97°
2026-04-14 16:46 46.69201 5.02850 26756 ft 477 kts 97°
2026-04-14 16:47 46.68491 5.07472 26625 ft 458 kts 97°
2026-04-14 16:47 46.67801 5.11919 26474 ft 441 kts 97°
2026-04-14 16:47 46.67133 5.16223 26167 ft 430 kts 97°
2026-04-14 16:47 46.66489 5.20411 25922 ft 417 kts 97°
2026-04-14 16:48 46.65872 5.24480 25676 ft 407 kts 97°
2026-04-14 16:48 46.65272 5.28480 25449 ft 402 kts 97°
2026-04-14 16:48 46.64682 5.32440 25208 ft 399 kts 97°
2026-04-14 16:48 46.64093 5.36380 24970 ft 397 kts 98°
2026-04-14 16:49 46.63502 5.40277 24638 ft 393 kts 98°
2026-04-14 16:49 46.62909 5.44144 24206 ft 391 kts 98°
2026-04-14 16:49 46.62318 5.47987 23774 ft 388 kts 99°
2026-04-14 16:49 46.61729 5.51812 23289 ft 386 kts 99°
2026-04-14 16:50 46.61145 5.55598 22849 ft 381 kts 99°
2026-04-14 16:50 46.60574 5.59285 22415 ft 377 kts 99°
2026-04-14 16:50 46.59996 5.62984 21964 ft 373 kts 99°
2026-04-14 16:50 46.59423 5.66639 21545 ft 369 kts 100°
2026-04-14 16:51 46.58853 5.70257 21072 ft 365 kts 100°
2026-04-14 16:51 46.58288 5.73840 20620 ft 362 kts 100°
2026-04-14 16:51 46.57601 5.77346 20161 ft 361 kts 109°
2026-04-14 16:51 46.56440 5.80590 19696 ft 362 kts 122°
2026-04-14 16:52 46.54834 5.83410 19215 ft 363 kts 134°
2026-04-14 16:52 46.52863 5.85700 18732 ft 364 kts 143°
2026-04-14 16:52 46.50788 5.87787 18231 ft 362 kts 143°
2026-04-14 16:52 46.48729 5.89856 17758 ft 358 kts 143°
2026-04-14 16:53 46.46692 5.91905 17289 ft 354 kts 144°
2026-04-14 16:53 46.44697 5.93904 16827 ft 351 kts 144°
2026-04-14 16:53 46.42691 5.95909 16362 ft 349 kts 144°
2026-04-14 16:53 46.40676 5.97923 15856 ft 352 kts 144°
2026-04-14 16:54 46.38663 5.99933 15353 ft 350 kts 144°
2026-04-14 16:54 46.36539 6.01634 14868 ft 350 kts 160°
2026-04-14 16:54 46.34149 6.02130 14378 ft 347 kts 184°
2026-04-14 16:54 46.31829 6.01278 13894 ft 344 kts 206°
2026-04-14 16:55 46.29908 5.99268 13365 ft 340 kts 225°
2026-04-14 16:55 46.28246 5.96843 12841 ft 337 kts 226°
2026-04-14 16:55 46.26642 5.94495 12319 ft 327 kts 226°
2026-04-14 16:55 46.25051 5.92167 11807 ft 317 kts 226°
2026-04-14 16:56 46.23521 5.89931 11220 ft 311 kts 226°
2026-04-14 16:56 46.22024 5.87749 10614 ft 308 kts 226°
2026-04-14 16:56 46.20521 5.85563 10007 ft 305 kts 226°
2026-04-14 16:56 46.19028 5.83394 9345 ft 304 kts 225°
2026-04-14 16:57 46.17545 5.81237 8687 ft 302 kts 225°
2026-04-14 16:57 46.16072 5.79099 8053 ft 300 kts 225°
2026-04-14 16:57 46.14600 5.76972 7422 ft 300 kts 225°
2026-04-14 16:57 46.13125 5.74844 6801 ft 299 kts 225°
2026-04-14 16:58 46.11659 5.72713 6204 ft 298 kts 225°
2026-04-14 16:58 46.10139 5.70832 6009 ft 278 kts 208°
2026-04-14 16:58 46.08385 5.70122 5993 ft 250 kts 176°
2026-04-14 16:58 46.06805 5.70593 5994 ft 218 kts 150°
2026-04-14 16:59 46.05643 5.71738 6037 ft 194 kts 130°
2026-04-14 16:59 46.04897 5.73256 6010 ft 183 kts 110°
2026-04-14 16:59 46.04556 5.74961 6022 ft 175 kts 92°
2026-04-14 16:59 46.04599 5.76655 6011 ft 169 kts 75°
2026-04-14 17:00 46.04889 5.78277 6002 ft 168 kts 72°
2026-04-14 17:00 46.05183 5.79905 6005 ft 169 kts 72°
2026-04-14 17:00 46.05479 5.81546 6006 ft 169 kts 72°
2026-04-14 17:00 46.05774 5.83178 6009 ft 168 kts 72°
2026-04-14 17:01 46.06160 5.84745 6005 ft 165 kts 56°
2026-04-14 17:01 46.06881 5.86041 5897 ft 166 kts 48°
2026-04-14 17:01 46.07665 5.87275 5715 ft 167 kts 46°
2026-04-14 17:01 46.08425 5.88415 5503 ft 149 kts 45°
2026-04-14 17:02 46.09126 5.89446 5316 ft 142 kts 44°
2026-04-14 17:02 46.09814 5.90451 5131 ft 142 kts 44°
2026-04-14 17:02 46.10518 5.91480 4952 ft 144 kts 44°
2026-04-14 17:02 46.11225 5.92510 4745 ft 143 kts 44°
2026-04-14 17:03 46.11928 5.93534 4546 ft 143 kts 43°
2026-04-14 17:03 46.12617 5.94538 4353 ft 141 kts 43°
2026-04-14 17:03 46.13302 5.95537 4157 ft 140 kts 43°
2026-04-14 17:03 46.13998 5.96551 3965 ft 142 kts 43°
2026-04-14 17:04 46.14691 5.97562 3777 ft 141 kts 43°
2026-04-14 17:04 46.15368 5.98551 3586 ft 136 kts 43°
2026-04-14 17:04 46.15985 5.99453 3405 ft 118 kts 44°
2026-04-14 17:04 46.16549 6.00276 3251 ft 114 kts 43°
2026-04-14 17:05 46.17103 6.01085 3111 ft 112 kts 43°
2026-04-14 17:05 46.17646 6.01879 2961 ft 111 kts 42°
2026-04-14 17:05 46.18183 6.02663 2806 ft 108 kts 43°
2026-04-14 17:05 46.18712 6.03437 2619 ft 108 kts 44°
2026-04-14 17:06 46.19241 6.04215 2652 ft 113 kts 45°
2026-04-14 17:06 46.19785 6.05065 2420 ft 116 kts 45°
2026-04-14 17:06 46.20372 6.05849 2164 ft 112 kts 43°
2026-04-14 17:06 46.20937 6.06688 2004 ft 119 kts 47°
2026-04-14 17:07 46.21518 6.07539 1819 ft 119 kts 47°
2026-04-14 17:07 46.22103 6.08406 1672 ft 121 kts 46°
2026-04-14 17:07 46.22677 6.09244 1475 ft 123 kts 46°
2026-04-14 17:07 46.23220 6.10047 1409 ft 102 kts 45°